Location: Buchloe
(48.0161°N, 10.7316°E)
Time: 19:44:16
(UTC+02:00)

ISS - Pass Details

Date: 17 May 2018
Orbit: 402 x 407 km, 51.6° (Epoch: 25 May)

Event Time Altitude Azimuth Distance (km) Brightness Sun altitude
Exits shadow 02:39:04 26° 295° (WNW) 841 -2.2 -20.0°
Maximum altitude 02:40:31 44° 353° (N) 568 -2.7 -19.9°
Drops below altitude 10° 02:43:40 10° 67° (ENE) 1,457 -0.4 -19.7°
Sets 02:45:48 0° 75° (ENE) 2,317 0.6 -19.6°
